Regional Weather Roundup
Issued by NWS Albany, NY

Home | Current Version | Previous Version | Text Only | Print | Product List | Glossary On
Versions: 1 2 3 4 5 6 7 8 9 10 11 12 13 14 15 16 17 18 19 20 21 22 23 24 25 26 27 28 29 30 31 32 33 34 35 36 37 38 39 40 41 42 43 44 45 46 47 48 49 50
000
ASUS41 KALY 291710
RWRALY

NEW YORK STATE HOURLY WEATHER ROUNDUP
NATIONAL WEATHER SERVICE ALBANY NY
100 PM EDT TUE JUL 29 2014

NOTE: "FAIR" INDICATES FEW OR NO CLOUDS BELOW 12,000 FEET WITH NO
SIGNIFICANT WEATHER AND/OR NO OBSTRUCTIONS TO VISIBILITY.

NYZ032-033-038>043-046>054-057>066-NYZ062>081-291800-
EAST


CITY           SKY/WX    TMP DP  RH WIND       PRES   REMARKS
ALBANY         MOSUNNY   71  52  50 W15       29.86S
GLENS FALLS    CLOUDY    70  50  49 CALM      29.84S
POUGHKEEPSIE   MOSUNNY   73  53  49 MISG      29.85S
MONTGOMERY     PTSUNNY   71  50  47 W8        29.86F
WHITE PLAINS   MOSUNNY   73  53  49 NW9       29.87R
ISLIP          PTSUNNY   76  54  46 CALM      29.84S
NEW YORK CITY  PTSUNNY   72  51  47 NW9       29.86S
CENTRAL PARK   PTSUNNY   72  50  45 CALM      29.89S
$$

NYZ005>009-017-018-044>046-055-056-291800-
CENTRAL


CITY           SKY/WX    TMP DP  RH WIND       PRES   REMARKS
FULTON         PTSUNNY   70  53  54 NW8       29.92S
SYRACUSE       MOSUNNY   71  53  52 W12       29.91S
ROME           PTSUNNY   67  51  56 NW13      29.90F
ELMIRA         CLOUDY    64  53  67 W7        29.94S
BINGHAMTON     CLOUDY    63  52  67 NW9       29.93S
MONTICELLO     PTSUNNY   64  50  59 NW9       29.91S
$$

NYZ026>034-041>043-291800-
NORTH


CITY           SKY/WX    TMP DP  RH WIND       PRES   REMARKS
WATERTOWN      PTSUNNY   70  51  51 W9        29.90R
FORT DRUM      NOT AVBL
MASSENA        PTSUNNY   66  53  63 W12       29.88R
SARANAC LAKE   PTSUNNY   61  48  62 VRB6      29.87S
PLATTSBURGH    CLOUDY    68  50  52 N7        29.84S
$$

NYZ001>004-010>016-019>021-291800-
WEST


CITY           SKY/WX    TMP DP  RH WIND       PRES   REMARKS
NIAGARA FALLS  PTSUNNY   68  52  56 NW10      29.94S
BUFFALO        PTSUNNY   65  49  56 W5        29.95S
DUNKIRK        PTSUNNY   65  53  65 NW14      29.97S
JAMESTOWN      CLOUDY    59  52  77 W6        29.99S
WELLSVILLE     CLOUDY    61  48  62 NW7       29.99S
ROCHESTER      CLOUDY    66  50  56 NW8       29.94R
PENN YAN       CLOUDY    64  51  62 NW6       29.95R
$$

             KEY
       WCI = WIND CHILL INDEX
       VSB = VISIBILITY
       HX  = HEAT INDEX
$$



USA.gov is the U.S. government's official web portal to all federal, state and local government web resources and services.